User: anonymous
Location: Black Swamp Observatory
(41.3920°N, 84.1250°W)
Time: 23:06:33
(UTC-04:00)
Language:

MaSat-1 - Orbit

View from above orbital plane
View from above orbital plane
View from above satellite
View from above satellite

Ground track
Ground track

The orbit data is extracted from the following two-line orbital elements,

1 38081U 12006E   14206.56285994  .00045231  40434-5  48650-3 0  2499
2 38081 069.4548 249.2590 0350693 299.4504 181.3521 15.14417103129277
Epoch (UTC): 25 July 2014 13:30:31
Eccentricity: 0.0350693
inclination: 69.4548°
perigee height: 281 km
apogee height: 765 km
right ascension of ascending node: 249.2590°
argument of perigee: 299.4504°
revolutions per day: 15.14417103
mean anomaly at epoch: 181.3521°
orbit number at epoch: 12927

The dashed part of the orbit path shows where the satellite is in the earth's shadow,  

DLR